Flag for Cameroon Weather past 2 weeks in Bamenda, Cameroon

Now
73 °F

Thunderstorms. Passing clouds.


Feels Like: 70 °F
Forecast: 60 / 85 °F
Wind: No wind

Location: Douala Obs.

Current Time: Feb 27, 2015 at 5:52:18 AM

Latest Report: Feb 27, 2015 at 5:00 AM


Visibility: 5 mi

Pressure: 29.83 "Hg

Humidity: 94%

Dew point: 72 °F

Location of BamendaLocation

Historic Weather in Bamenda — Graph

°F

Bamenda temperature yesterday

Maximum temperature yesterday: 86 °F (at 3:00 PM)
Minimum temperature yesterday: 77 °F (at 6:00 AM)
Average temperature yesterday: 81 °F

Past Weeks' High & Low Weather Summary

 TemperatureHumidityPressure
High93 °F (Feb 16, 2:00 PM)100% (Feb 15, 7:00 AM)29.95 "Hg (Feb 15, 7:00 AM)
Low72 °F (Feb 19, 2:00 AM)59% (Feb 14, 1:00 PM)29.71 "Hg (Feb 17, 6:00 PM)
Average83 °F83%29.83 "Hg
* Reported Feb 12 4:00 AM — Feb 27 4:00 AM, Bamenda, Weather by CustomWeather, © 2015

Note: Actual official high and low records may vary slightly from our data, if they occured in-between our weather recording intervals... More about our weather records

Advertising

Bamenda weather history for previous 24 hours

 ConditionsComfort  
Time TempWeatherWind HumidityBarometerVisibility
4:00 AM
Fri, Feb 27
73 °FThunderstorms. Passing clouds.5 mph94%29.83 "Hg4 mi
3:00 AM73 °FThunderstorms. Passing clouds.No wind94%29.83 "Hg4 mi
2:00 AM75 °FThunderstorms. Passing clouds.5 mph89%29.86 "Hg5 mi
1:00 AM75 °FThunderstorms. Passing clouds.7 mph89%29.83 "HgN/A
12:00 AM77 °FThunderstorms. Passing clouds.7 mph83%29.86 "HgN/A
11:00 PM
Thu, Feb 26
79 °FThunderstorms. Passing clouds.No wind84%29.83 "HgN/A
10:00 PM81 °FThunderstorms. Passing clouds.7 mph84%29.83 "Hg5 mi
9:00 PM81 °FThunderstorms. Partly cloudy.5 mph89%29.80 "HgN/A
8:00 PM81 °FThunderstorms. Partly cloudy.5 mph89%29.80 "HgN/A
7:00 PM82 °FPartly cloudy.5 mph84%29.77 "HgN/A
6:00 PM84 °FBroken clouds.7 mph74%29.74 "HgN/A
5:00 PM86 °FBroken clouds.7 mph70%29.74 "HgN/A
4:00 PM86 °FPartly sunny.5 mph75%29.74 "HgN/A
3:00 PM86 °FPartly sunny.5 mph75%29.77 "HgN/A
2:00 PM84 °FPartly sunny.5 mph79%29.80 "HgN/A
1:00 PM84 °FThunderstorms. Partly sunny.5 mph79%29.80 "HgN/A
12:00 PM84 °FThunderstorms. Partly sunny.No wind74%29.83 "HgN/A
11:00 AM82 °FThunderstorms. Broken clouds.No wind84%29.86 "HgN/A
10:00 AM77 °FThunderstorms. Broken clouds.No wind94%29.86 "HgN/A
9:00 AM77 °FThunderstorms. Broken clouds.9 mph94%29.86 "Hg1 mi
8:00 AM77 °FThunderstorms. Broken clouds.No wind94%29.83 "Hg4 mi
7:00 AM77 °FThunderstorms. Broken clouds.No wind100%29.80 "Hg5 mi
6:00 AM77 °FThunderstorms. Partly cloudy.No wind94%29.80 "Hg5 mi
5:00 AM79 °FThunderstorms. Partly cloudy.No wind94%29.77 "Hg4 mi
Weather by CustomWeather, © 2015

See weather overviewHow to use our weather pages